Погода в Кварсе

Россия / Удмуртская Республика     56°57′33″N   53°56′43″E
темп.,
°C
ветер,
м/с
пор.,
м/с
влажн.,
%
обл.,
%
осадки,
мм/ч
давл.,
гПа
погр.,
м
18 мая, вт
вт1801:00+17сз348099 0.1 101756
04:00+14ссз22844 0.1 101819
07:00+17с46725 0.0 1019390
10:00+21ссв455029 0.0 10191021
13:00+23ссв454435 0.0 10191468
16:00+24ссв45417 0.0 10191817
19:00+21ссв47535 0.0 1020358
22:00+15всв38673 0.0 1021154
19 мая, ср
ср1901:00+13в38843 0.0 1022187
04:00+12в310843 0.0 1023251
07:00+15в48665 0.0 1023444
10:00+20в564628 0.0 1023939
13:00+23вюв563574 0.0 10221232
16:00+23в4533100 0.0 10221363
19:00+20в3550100 0.0 1022117
22:00+15в2263100 0.0 102218
20 мая, чт
чт2001:00+14вюв226844 0.0 102217
04:00+12вюв22735 0.0 102310
07:00+16вюв23571 0.0 1023215
10:00+22ю23410 0.0 1022880
13:00+25юз33364 0.0 10221864
16:00+26ююз44310 0.0 10212231
19:00+22ю37470 0.0 1020311
22:00+16ююв22630 0.0 102117
21 мая, пт
пт2101:00+14юв22685 0.0 102112
04:00+13юв227091 0.0 102113
07:00+18ююв48563 0.0 1021305
10:00+24ю573523 0.0 10211608
13:00+25ююз68300 0.0 10202436
16:00+25ююз68312 0.0 10192428
19:00+23ю49422 0.0 1019437
22:00+17ю35600 0.0 102074
22 мая, сб
сб2201:00+15ю347699 0.1 102070
04:00+14юз2486100 0.1 102175
07:00+18юз367093 0.0 1022284
10:00+22юз585416 0.0 10221136
13:00+24зюз6846100 0.0 10211854
16:00+22юз4855100 0.0 1021615
19:00+21зюз5106586 0.9 1021590
22:00+14с1192100 1.3 102354